Location: Marcé
(47.5801°N, 0.3280°W)
Time: 23:57:45
(UTC+02:00)

ACS3 Solar Sail - Pass Details

Date: 22 June 2024
Orbit: 992 x 1023 km, 97.4° (Epoch: 12 July)

Event Time Altitude Azimuth Distance (km) Brightness Sun altitude
Exits shadow 00:26:12 - 203° (SSW) 2,808 6.8 -15.7°
Reaches altitude 10° 00:26:20 10° 204° (SSW) 2,763 6.8 -15.7°
Maximum altitude 00:31:54 34° 267° (W) 1,592 6.1 -16.1°
Drops below altitude 10° 00:37:29 10° 331° (NNW) 2,768 8.5 -16.4°
Sets 00:40:15 0° 341° (NNW) 3,721 9.7 -16.6°
